Weather History for Oscoda, MI

Change the Weather History Date:

Monday, November 19, 2012

  Actual Average Record
Temperature  
Mean Temperature 34 °F -  
Max Temperature 46 °F 42 °F 55 °F (1999)
Min Temperature 22 °F 29 °F 10 °F (2008)
Degree Days  
Heating Degree Days 31    
Moisture  
Dew Point 30 °F    
Average Humidity 89    
Maximum Humidity 99    
Minimum Humidity 61    
Precipitation  
Precipitation 0.00 in - - ()
Sea Level Pressure  
Sea Level Pressure 30.30 in    
Wind  
Wind Speed 0 mph (SSW)    
Max Wind Speed 5 mph    
Max Gust Speed -    
Visibility 5 miles    
Events Fog    
Averages and records for this station are not official NWS values.
T = Trace of Precipitation, MM = Missing Value Source: NWS Daily Summary

Daily Weather History Graph

Daily Weather History Graph

Search for Another Location

Airport:

Trip Planner

Search our weather history database for the weather conditions in past years. The results will help you decide how hot, cold, wet, or windy it might be!

Date:

Astronomy

Nov. 19, 2012 Rise Set
Actual Time 7:35 AM EST 5:02 PM EST
Civil Twilight 7:03 AM EST 5:33 PM EST
Nautical Twilight 6:28 AM EST 6:09 PM EST
Astronomical Twilight 5:53 AM EST 6:43 PM EST
Moon 12:32 PM EST (11/19) 11:34 PM EST (11/19)
Length of Visible Light 10h 30m
Length of Day
9h 26m
Waxing Crescent, 40% of the Moon is Illuminated
Nov 19
Waxing Crescent
Nov 20
First Quarter
Nov 28
Full
Dec 6
Last Quarter
Dec 13
New

Hourly Weather History & Observations

Time (EST) Temp. Windchill Dew Point Humidity Pressure Visibility Wind Dir Wind Speed Gust Speed Precip Events Conditions
12:13 AM 25.7 °F - 25.3 °F 99% 30.42 in 0.2 mi Calm Calm - N/A Fog Light Freezing Fog
12:34 AM 25.5 °F - 25.0 °F 98% 30.42 in 0.2 mi Calm Calm - N/A Fog Light Freezing Fog
12:54 AM 25.3 °F - 24.8 °F 98% 30.41 in 0.2 mi Calm Calm - N/A Fog Light Freezing Fog
1:14 AM 24.8 °F - 24.1 °F 97% 30.41 in 0.2 mi Calm Calm - N/A Fog Light Freezing Fog
1:34 AM 24.4 °F - 23.5 °F 96% 30.40 in 0.2 mi Calm Calm - N/A Fog Light Freezing Fog
1:54 AM 24.4 °F - 23.7 °F 97% 30.40 in 0.2 mi Calm Calm - N/A Fog Light Freezing Fog
2:13 AM 24.4 °F - 23.7 °F 97% 30.40 in 0.8 mi Calm Calm - N/A   Overcast
2:34 AM 23.9 °F - 23.0 °F 96% 30.40 in 0.5 mi Calm Calm - N/A Fog Light Freezing Fog
2:54 AM 24.6 °F - 23.9 °F 97% 30.39 in 1.8 mi Calm Calm - N/A   Mist
3:14 AM 23.9 °F 19.5 °F 23.0 °F 96% 30.40 in 2.5 mi WSW 3.5 mph - N/A   Clear
3:34 AM 23.5 °F 19.1 °F 22.6 °F 96% 30.39 in 4.0 mi West 3.5 mph - N/A   Clear
3:54 AM 24.4 °F - 23.5 °F 96% 30.39 in 4.0 mi Calm Calm - N/A   Clear
4:14 AM 26.2 °F - 25.5 °F 97% 30.39 in 4.0 mi Calm Calm - N/A   Scattered Clouds
4:34 AM 27.3 °F - 26.8 °F 98% 30.38 in 4.0 mi Calm Calm - N/A   Scattered Clouds
4:54 AM 25.9 °F - 25.2 °F 97% 30.38 in 4.0 mi Calm Calm - N/A   Scattered Clouds
5:14 AM 24.4 °F - 23.5 °F 96% 30.38 in 1.8 mi Calm Calm - N/A   Overcast
5:34 AM 26.2 °F - 25.5 °F 97% 30.37 in 0.2 mi Calm Calm - N/A Fog Light Freezing Fog
5:54 AM 26.6 °F - 26.1 °F 98% 30.37 in 4.0 mi Calm Calm - N/A   Mostly Cloudy
6:14 AM 23.4 °F - 22.5 °F 96% 30.36 in 0.2 mi Calm Calm - N/A Fog Light Freezing Fog
6:34 AM 24.1 °F - 23.2 °F 96% 30.36 in 0.2 mi Calm Calm - N/A Fog Light Freezing Fog
6:54 AM 24.6 °F - 23.9 °F 97% 30.36 in 0.2 mi Calm Calm - N/A Fog Light Freezing Fog
7:14 AM 24.6 °F - 23.9 °F 97% 30.36 in 0.2 mi Calm Calm - N/A Fog Light Freezing Fog
7:34 AM 22.8 °F - 21.7 °F 96% 30.36 in 0.2 mi Calm Calm - N/A Fog Light Freezing Fog
7:54 AM 23.4 °F - 22.5 °F 96% 30.36 in 0.2 mi Calm Calm - N/A Fog Light Freezing Fog
8:14 AM 24.3 °F - 23.4 °F 96% 30.36 in 0.2 mi Calm Calm - N/A Fog Light Freezing Fog
8:34 AM 25.2 °F - 24.4 °F 97% 30.36 in 0.2 mi Calm Calm - N/A Fog Light Freezing Fog
8:54 AM 25.9 °F - 25.2 °F 97% 30.37 in 0.2 mi Calm Calm - N/A Fog Light Freezing Fog
9:14 AM 28.2 °F - 27.7 °F 98% 30.36 in 0.2 mi Calm Calm - N/A Fog Light Freezing Fog
9:34 AM 30.0 °F - 29.3 °F 97% 30.36 in 0.2 mi Calm Calm - N/A Fog Light Freezing Fog
9:54 AM 31.1 °F - 30.7 °F 99% 30.35 in 0.2 mi Calm Calm - N/A Fog Light Freezing Fog
10:14 AM 31.8 °F - 31.5 °F 99% 30.35 in 0.2 mi Calm Calm - N/A Fog Fog
10:34 AM 32.4 °F - 32.0 °F 99% 30.34 in 0.2 mi Calm Calm - N/A Fog Fog
10:54 AM 34.9 °F - 34.5 °F 99% 30.34 in 0.2 mi Calm Calm - N/A Fog Fog
11:14 AM 37.4 °F - 36.7 °F 97% 30.34 in 0.2 mi Calm Calm - N/A Fog Fog
11:34 AM 39.2 °F - 38.7 °F 98% 30.33 in 0.5 mi Calm Calm - N/A Fog Fog
11:54 AM 41.5 °F - 41.2 °F 99% 30.32 in 2.5 mi Calm Calm - N/A   Scattered Clouds
12:14 PM 42.8 °F - 42.3 °F 98% 30.31 in 4.0 mi Calm Calm - N/A   Scattered Clouds
12:34 PM 43.9 °F - 41.5 °F 91% 30.29 in 5.0 mi Calm Calm - N/A   Clear
12:53 PM 44.1 °F 42.5 °F 41.7 °F 91% 30.28 in 5.0 mi ENE 3.5 mph - N/A   Clear
1:14 PM 45.5 °F - 41.4 °F 85% 30.28 in 5.0 mi Calm Calm - N/A   Clear
1:34 PM 46.4 °F - 40.3 °F 79% 30.27 in 7.0 mi Calm Calm - N/A   Clear
1:53 PM 46.6 °F - 39.2 °F 75% 30.27 in 10.0 mi Calm Calm - N/A   Clear
2:14 PM 46.8 °F - 38.3 °F 72% 30.26 in 10.0 mi South 3.5 mph - N/A   Clear
2:34 PM 46.8 °F - 37.0 °F 69% 30.26 in 10.0 mi SSE 4.6 mph - N/A   Clear
2:53 PM 46.4 °F - 36.0 °F 67% 30.25 in 10.0 mi Calm Calm - N/A   Clear
3:14 PM 46.9 °F - 36.3 °F 67% 30.25 in 10.0 mi SSW 3.5 mph - N/A   Clear
3:34 PM 46.8 °F - 34.0 °F 61% 30.24 in 10.0 mi SSW 4.6 mph - N/A   Clear
3:54 PM 46.0 °F 43.9 °F 33.6 °F 62% 30.25 in 10.0 mi SSW 4.6 mph - N/A   Clear
4:14 PM 45.5 °F 44.2 °F 33.1 °F 62% 30.24 in 10.0 mi SSE 3.5 mph - N/A   Clear
4:34 PM 45.1 °F - 33.3 °F 63% 30.24 in 10.0 mi Calm Calm - N/A   Clear
4:54 PM 43.9 °F - 33.3 °F 66% 30.23 in 10.0 mi Calm Calm - N/A   Clear
5:14 PM 43.2 °F - 33.1 °F 68% 30.23 in 10.0 mi Calm Calm - N/A   Clear
5:33 PM 42.1 °F - 33.6 °F 72% 30.23 in 10.0 mi Calm Calm - N/A   Scattered Clouds
5:54 PM 41.2 °F - 33.8 °F 75% 30.22 in 10.0 mi Calm Calm - N/A   Clear
6:14 PM 38.8 °F - 32.5 °F 78% 30.22 in 10.0 mi Calm Calm - N/A   Clear
6:34 PM 38.7 °F - 33.1 °F 80% 30.22 in 10.0 mi Calm Calm - N/A   Clear
6:54 PM 38.3 °F - 32.9 °F 81% 30.22 in 10.0 mi Calm Calm - N/A   Scattered Clouds
7:14 PM 37.0 °F - 32.7 °F 84% 30.21 in 10.0 mi Calm Calm - N/A   Mostly Cloudy
7:34 PM 35.2 °F - 32.0 °F 88% 30.20 in 10.0 mi Calm Calm - N/A   Scattered Clouds
7:54 PM 35.4 °F - 32.0 °F 87% 30.20 in 10.0 mi Calm Calm - N/A   Clear
8:14 PM 35.6 °F - 32.0 °F 87% 30.19 in 10.0 mi Calm Calm - N/A   Clear
8:34 PM 35.2 °F - 32.0 °F 88% 30.19 in 10.0 mi Calm Calm - N/A   Scattered Clouds
8:54 PM 35.6 °F - 32.0 °F 87% 30.19 in 10.0 mi Calm Calm - N/A   Clear
9:14 PM 34.9 °F - 32.0 °F 89% 30.19 in 10.0 mi Calm Calm - N/A   Clear
9:34 PM 35.6 °F - 32.0 °F 87% 30.18 in 10.0 mi Calm Calm - N/A   Scattered Clouds
9:54 PM 35.4 °F - 32.0 °F 87% 30.18 in 10.0 mi Calm Calm - N/A   Scattered Clouds
10:14 PM 33.6 °F - 31.1 °F 90% 30.17 in 10.0 mi Calm Calm - N/A   Clear
10:34 PM 32.9 °F - 31.1 °F 93% 30.17 in 10.0 mi Calm Calm - N/A   Clear
10:54 PM 32.0 °F - 30.9 °F 96% 30.16 in 10.0 mi Calm Calm - N/A   Clear
11:14 PM 30.9 °F 27.5 °F 29.8 °F 96% 30.16 in 10.0 mi SSW 3.5 mph - N/A   Clear
11:34 PM 30.0 °F - 28.9 °F 96% 30.16 in 3.0 mi Calm Calm - N/A   Clear
11:54 PM 30.2 °F 26.7 °F 28.9 °F 95% 30.16 in 7.0 mi SSW 3.5 mph - N/A   Scattered Clouds